Change the Weather History Date:

Saturday, January 18, 2014

  Actual Average Record
Temperature  
Mean Temperature 24 °F -  
Max Temperature 35 °F 25 °F 48 °F (2013)
Min Temperature 14 °F 6 °F -23 °F (1967)
Degree Days  
Heating Degree Days 40    
Moisture  
Dew Point 18 °F    
Average Humidity 80    
Maximum Humidity 93    
Minimum Humidity 55    
Precipitation  
Precipitation 0.00 in - - ()
Sea Level Pressure  
Sea Level Pressure 29.75 in    
Wind  
Wind Speed 20 mph (WNW)    
Max Wind Speed 37 mph    
Max Gust Speed 51 mph    
Visibility 9 miles    
Events Rain , Snow    
Averages and records for this station are not official NWS values.
T = Trace of Precipitation, MM = Missing Value Source: NWS Daily Summary

Daily Weather History Graph

Daily Weather History Graph

Search for Another Location

Airport or City:

Trip Planner

Search our weather history database for the weather conditions in past years. The results will help you decide how hot, cold, wet, or windy it might be!

Date:

Astronomy

Jan. 18, 2014 Rise Set
Actual Time 7:50 AM CST 5:17 PM CST
Civil Twilight 7:19 AM CST 5:48 PM CST
Nautical Twilight 6:44 AM CST 6:23 PM CST
Astronomical Twilight 6:10 AM CST 6:57 PM CST
Moon 8:05 PM CST (1/18) 8:46 AM CST (1/18)
Length of Visible Light 10h 29m
Length of Day
9h 26m
Waning Gibbous, 94% of the Moon is Illuminated
Jan 18
Waning Gibbous
Jan 23
Last Quarter
Jan 30
New
Feb 6
First Quarter
Feb 14
Full

Hourly Weather History & Observations

Time (CST) Temp. Windchill Dew Point Humidity Pressure Visibility Wind Dir Wind Speed Gust Speed Precip Events Conditions
12:15 AM 26.6 °F 13.4 °F 12.2 °F 55% 29.64 in 10.0 mi South 18.4 mph - N/A   Overcast
12:35 AM 26.6 °F 14.3 °F 12.2 °F 55% 29.61 in 10.0 mi South 16.1 mph 23.0 mph N/A   Overcast
12:55 AM 26.6 °F 13.8 °F 12.2 °F 55% 29.58 in 10.0 mi South 17.3 mph 26.5 mph N/A   Overcast
1:15 AM 26.6 °F 13.8 °F 14.0 °F 59% 29.57 in 10.0 mi South 17.3 mph - N/A   Mostly Cloudy
1:35 AM 28.4 °F 15.1 °F 14.0 °F 55% 29.56 in 10.0 mi SSW 20.7 mph - N/A   Overcast
1:55 AM 28.4 °F 15.4 °F 14.0 °F 55% 29.54 in 10.0 mi SSW 19.6 mph 28.8 mph N/A   Overcast
2:15 AM 28.4 °F 16.6 °F 15.8 °F 59% 29.53 in 10.0 mi SW 16.1 mph 27.6 mph N/A   Overcast
2:35 AM 26.6 °F 14.3 °F 15.8 °F 64% 29.54 in 10.0 mi SW 16.1 mph 21.9 mph N/A   Overcast
2:55 AM 28.4 °F 16.6 °F 17.6 °F 64% 29.53 in 10.0 mi WSW 16.1 mph - N/A   Mostly Cloudy
3:15 AM 30.2 °F 19.8 °F 21.2 °F 69% 29.52 in 10.0 mi WSW 13.8 mph - N/A   Overcast
3:35 AM 32.0 °F 21.2 °F 23.0 °F 69% 29.52 in 10.0 mi West 16.1 mph - N/A   Overcast
3:55 AM 32.0 °F 20.8 °F 26.6 °F 80% 29.51 in 4.0 mi WNW 17.3 mph 24.2 mph N/A Snow Light Snow
4:15 AM 33.8 °F 23.2 °F 28.4 °F 81% 29.50 in 9.0 mi WNW 17.3 mph - N/A Rain Light Rain
4:35 AM 35.6 °F 24.8 °F 30.2 °F 81% 29.49 in 10.0 mi WNW 19.6 mph - N/A   Overcast
4:55 AM 35.6 °F 24.8 °F 30.2 °F 81% 29.49 in 10.0 mi WNW 19.6 mph 27.6 mph N/A   Overcast
5:15 AM 35.6 °F 23.7 °F 30.2 °F 81% 29.49 in 10.0 mi WNW 24.2 mph - N/A   Overcast
5:35 AM 33.8 °F 22.8 °F 32.0 °F 93% 29.49 in 6.0 mi WNW 18.4 mph 27.6 mph N/A Rain Light Rain
5:55 AM 33.8 °F 21.6 °F 32.0 °F 93% 29.49 in 4.0 mi WNW 23.0 mph 29.9 mph N/A Snow Light Snow
6:15 AM 33.8 °F 22.8 °F 32.0 °F 93% 29.49 in 10.0 mi WNW 18.4 mph 26.5 mph N/A Rain Light Rain
6:35 AM 35.6 °F 24.8 °F 32.0 °F 87% 29.49 in 9.0 mi WNW 19.6 mph 28.8 mph N/A   Overcast
6:55 AM 35.6 °F 24.5 °F 32.0 °F 87% 29.48 in 10.0 mi WNW 20.7 mph 29.9 mph N/A   Overcast
7:15 AM 35.6 °F 23.2 °F 32.0 °F 87% 29.48 in 7.0 mi WNW 26.5 mph 34.5 mph N/A Snow Light Snow
7:35 AM 35.6 °F 24.0 °F 32.0 °F 87% 29.48 in 7.0 mi WNW 23.0 mph 33.4 mph N/A Rain Light Rain
7:55 AM 33.8 °F 18.8 °F 30.2 °F 87% 29.48 in 4.0 mi NW 36.8 mph 50.6 mph N/A Snow Light Snow
8:15 AM 32.0 °F 17.6 °F 26.6 °F 80% 29.50 in 5.0 mi NW 29.9 mph 44.9 mph N/A Snow Light Snow
8:35 AM 30.2 °F 15.4 °F 24.8 °F 80% 29.52 in 10.0 mi NW 28.8 mph 40.3 mph N/A   Overcast
8:55 AM 30.2 °F 15.7 °F 24.8 °F 80% 29.54 in 10.0 mi NNW 27.6 mph 41.4 mph N/A Rain Light Freezing Rain
9:15 AM 28.4 °F 12.7 °F 24.8 °F 86% 29.56 in 7.0 mi NNW 29.9 mph 42.6 mph N/A Rain Light Freezing Rain
9:35 AM 28.4 °F 11.8 °F 23.0 °F 80% 29.58 in 7.0 mi NNW 34.5 mph 42.6 mph N/A Rain Light Freezing Rain
9:55 AM 26.6 °F 10.0 °F 23.0 °F 86% 29.61 in 8.0 mi NNW 31.1 mph 42.6 mph N/A Rain Light Freezing Rain
10:15 AM 24.8 °F 7.1 °F 21.2 °F 86% 29.63 in 7.0 mi NNW 33.4 mph 40.3 mph N/A Rain Light Freezing Rain
10:35 AM 24.8 °F 6.4 °F 19.4 °F 80% 29.66 in 7.0 mi NNW 36.8 mph 43.7 mph N/A Rain Light Freezing Rain
10:55 AM 23.0 °F 4.9 °F 17.6 °F 80% 29.70 in 5.0 mi NNW 32.2 mph 46.0 mph N/A Rain Light Freezing Rain
11:15 AM 21.2 °F 1.7 °F 15.8 °F 80% 29.74 in 10.0 mi North 35.7 mph 43.7 mph N/A   Light Freezing Rain
11:35 AM 19.4 °F -0.6 °F 15.8 °F 86% 29.75 in 4.0 mi NNW 34.5 mph 44.9 mph N/A   Light Freezing Rain
11:55 AM 19.4 °F 0.5 °F 15.8 °F 86% 29.77 in 4.0 mi North 29.9 mph 44.9 mph N/A Snow Light Snow
12:15 PM 19.4 °F -0.6 °F 14.0 °F 80% 29.79 in 7.0 mi NNW 34.5 mph 44.9 mph N/A Rain Light Freezing Rain
12:35 PM 19.4 °F 0.8 °F 12.2 °F 74% 29.81 in 10.0 mi North 28.8 mph 42.6 mph N/A   Overcast
12:55 PM 19.4 °F -0.0 °F 14.0 °F 80% 29.82 in 5.0 mi North 32.2 mph 41.4 mph N/A Snow Light Snow
1:15 PM 19.4 °F 0.8 °F 14.0 °F 80% 29.84 in 4.0 mi North 28.8 mph 35.7 mph N/A Rain Light Freezing Rain
1:35 PM 19.4 °F 1.4 °F 14.0 °F 80% 29.86 in 6.0 mi North 26.5 mph 34.5 mph N/A Snow Light Snow
1:55 PM 21.2 °F 4.5 °F 14.0 °F 74% 29.88 in 8.0 mi North 24.2 mph 33.4 mph N/A Rain Light Freezing Rain
2:15 PM 21.2 °F 5.2 °F 15.8 °F 80% 29.89 in 9.0 mi NNW 21.9 mph 31.1 mph N/A   Light Freezing Rain
2:35 PM 21.2 °F 5.2 °F 14.0 °F 74% 29.90 in 10.0 mi NNW 21.9 mph 29.9 mph N/A   Scattered Clouds
2:55 PM 21.2 °F 5.2 °F 14.0 °F 74% 29.93 in 10.0 mi NNW 21.9 mph - N/A   Mostly Cloudy
3:15 PM 21.2 °F 5.2 °F 14.0 °F 74% 29.95 in 10.0 mi NNW 21.9 mph 27.6 mph N/A   Mostly Cloudy
3:35 PM 21.2 °F 6.4 °F 14.0 °F 74% 29.97 in 10.0 mi NW 18.4 mph 28.8 mph N/A   Mostly Cloudy
3:55 PM 21.2 °F 6.0 °F 14.0 °F 74% 29.98 in 10.0 mi NW 19.6 mph 27.6 mph N/A   Mostly Cloudy
4:15 PM 21.2 °F 5.6 °F 14.0 °F 74% 29.99 in 10.0 mi NNW 20.7 mph 27.6 mph N/A   Partly Cloudy
4:35 PM 21.2 °F 5.6 °F 14.0 °F 74% 29.99 in 10.0 mi NNW 20.7 mph - N/A   Clear
4:55 PM 21.2 °F 6.4 °F 14.0 °F 74% 30.00 in 10.0 mi NNW 18.4 mph - N/A   Clear
5:15 PM 19.4 °F 6.0 °F 14.0 °F 80% 30.01 in 10.0 mi NNW 13.8 mph 23.0 mph N/A   Clear
5:35 PM 19.4 °F 6.6 °F 14.0 °F 80% 30.00 in 10.0 mi NNW 12.7 mph 18.4 mph N/A   Clear
5:55 PM 17.6 °F 8.2 °F 14.0 °F 86% 30.01 in 10.0 mi NW 6.9 mph 12.7 mph N/A   Clear
6:15 PM 17.6 °F 7.3 °F 12.2 °F 79% 29.99 in 10.0 mi NW 8.1 mph - N/A   Clear
6:35 PM 15.8 °F 6.1 °F 12.2 °F 86% 30.00 in 10.0 mi WNW 6.9 mph - N/A   Clear
6:55 PM 15.8 °F 7.2 °F 12.2 °F 86% 29.99 in 10.0 mi West 5.8 mph - N/A   Clear
7:15 PM 14.0 °F 3.9 °F 10.4 °F 86% 29.99 in 10.0 mi West 6.9 mph - N/A   Clear
7:35 PM 14.0 °F 2.9 °F 12.2 °F 93% 29.99 in 10.0 mi West 8.1 mph - N/A   Clear
7:55 PM 15.8 °F 6.1 °F 12.2 °F 86% 29.99 in 10.0 mi West 6.9 mph - N/A   Scattered Clouds
8:15 PM 15.8 °F 5.1 °F 12.2 °F 86% 29.98 in 10.0 mi West 8.1 mph - N/A   Scattered Clouds
8:35 PM 15.8 °F 6.1 °F 14.0 °F 93% 29.98 in 10.0 mi West 6.9 mph - N/A   Mostly Cloudy
8:55 PM 17.6 °F - 14.0 °F 86% 29.96 in 10.0 mi Calm Calm - N/A   Overcast
9:15 PM 15.8 °F - 14.0 °F 93% 29.94 in 10.0 mi Calm Calm - N/A   Partly Cloudy
9:35 PM 17.6 °F 10.7 °F 14.0 °F 86% 29.94 in 10.0 mi SW 4.6 mph - N/A   Partly Cloudy
9:55 PM 17.6 °F 9.3 °F 15.8 °F 93% 29.92 in 10.0 mi SW 5.8 mph - N/A   Scattered Clouds
10:15 PM 17.6 °F 5.7 °F 15.8 °F 93% 29.93 in 10.0 mi SW 10.4 mph - N/A   Scattered Clouds
10:35 PM 17.6 °F 7.3 °F 15.8 °F 93% 29.92 in 10.0 mi SW 8.1 mph 13.8 mph N/A   Partly Cloudy
10:55 PM 17.6 °F 6.4 °F 15.8 °F 93% 29.93 in 10.0 mi SW 9.2 mph - N/A   Clear
11:15 PM 17.6 °F 3.7 °F 15.8 °F 93% 29.90 in 10.0 mi SW 13.8 mph - N/A   Clear
11:35 PM 17.6 °F 2.2 °F 15.8 °F 93% 29.85 in 10.0 mi SW 17.3 mph 27.6 mph N/A   Scattered Clouds
11:55 PM 19.4 °F 4.5 °F 15.8 °F 86% 29.85 in 10.0 mi SW 17.3 mph 23.0 mph N/A   Scattered Clouds